Hourly Data Report for May 06, 2021

TORONTO CITY
ONTARIO
Current Station Operator: ECCC - MSC

43°40'00.000" N
79°24'00.000" W
112.50 m
6158355
71508
XTO

Download Data

Hourly Data (May 2021)
Hourly Data Report for May 6, 2021
TIME
LST
Temp Definition
°C
Dew Point Definition
°C
Rel Hum Definition
%
Precip. Amount Definition
mm

Wind Dir Definition
10's deg

Wind Spd Definition
km/h
Visibility Definition
km
Stn Press Definition
kPa
Hmdx Definition


Wind Chill Definition


Weather Definition


00:00 6.7 2.3 74 0.0       100.37     LegendNANA
01:00 6.1 1.8 74 0.0       100.38     LegendNANA
02:00 5.5 1.8 77 0.0       100.38     LegendNANA
03:00 5.0 1.5 78 0.0       100.38     LegendNANA
04:00 4.8 1.4 79 0.0       100.42     LegendNANA
05:00 5.1 1.6 78 0.0       100.44     LegendNANA
06:00 4.9 1.6 79 0.0       100.45     LegendNANA
07:00 7.3 1.4 66 0.0       100.51     LegendNANA
08:00 9.5 0.5 53 0.0       100.55     LegendNANA
09:00 9.4 -0.7 49 0.0       100.57     LegendNANA
10:00 10.6 -3.5 37 0.0       100.55     LegendNANA
11:00 10.2 -3.6 38 0.0       100.54     LegendNANA
12:00 10.9 -2.7 38 0.0       100.48     LegendNANA
13:00 10.9 -3.5 36 0.0       100.44     LegendNANA
14:00 12.0 -0.2 43 0.0       100.36     LegendNANA
15:00 12.2 -0.4 42 0.0       100.25     LegendNANA
16:00 12.3 -1.8 38 0.0       100.21     LegendNANA
17:00 12.4 -2.4 35 0.0       100.17     LegendNANA
18:00 11.3 -0.7 43 0.0       100.17     LegendNANA
19:00 11.3 0.4 47 0.0       100.18     LegendNANA
20:00 11.7 0.4 46 0.0       100.24     LegendNANA
21:00 10.7 0.2 48 0.0       100.27     LegendNANA
22:00 10.0 -0.9 47 0.0       100.29     LegendNANA
23:00 9.3 0.3 53 0.0       100.25     LegendNANA

Notes on Data Quality.

Legend

  • E = Estimated
  • M = Missing
  • NA = Not Available*
  • [empty] = Indicates an unobserved value
Date modified: